User: anonymous   Login
Location: Unspecified
(0.0000°N, 0.0000°E)
Time: 16:36:21
(UTC+00:00)
Language:

EGRS 1 - Orbit

View from above orbital plane
View from above orbital plane
View from above satellite
View from above satellite

Ground track
Ground track

The orbit data is extracted from the following two-line orbital elements,

1 00729U 64001C   18200.83130585 -.00000028  00000-0  19160-4 0  9995
2 00729  69.9013   8.6201 0014252 191.3112 168.7674 13.94881706774304
Epoch (UTC): 19 July 2018 19:57:04
Eccentricity: 0.0014252
inclination: 69.9013°
perigee height: 901 km
apogee height: 922 km
right ascension of ascending node: 8.6201°
argument of perigee: 191.3112°
revolutions per day: 13.94881706
mean anomaly at epoch: 168.7674°
orbit number at epoch: 77430

The dashed part of the orbit path shows where the satellite is in the earth's shadow,  

DLR